Change the Weather History Date:

Sunday, January 20, 2013

  Actual Average (KCHS) Record (KCHS)
Temperature  
Mean Temperature 55 °F 48 °F  
Max Temperature 69 °F 59 °F 75 °F (1951)
Min Temperature 39 °F 37 °F 17 °F (1976)
Degree Days  
Heating Degree Days 10 17  
Month to date heating degree days 340  
Since 1 July heating degree days 1078  
Cooling Degree Days 0 0  
Month to date cooling degree days 0  
Year to date cooling degree days 0  
Growing Degree Days 5 (Base 50)    
Moisture  
Dew Point 40 °F    
Average Humidity 72    
Maximum Humidity 100    
Minimum Humidity 20    
Precipitation  
Precipitation 0.00 in 0.13 in 1.22 in (1963)
Month to date precipitation 2.39  
Year to date precipitation 2.39  
Sea Level Pressure  
Sea Level Pressure 30.14 in    
Wind  
Wind Speed 2 mph (WNW)    
Max Wind Speed 15 mph    
Max Gust Speed 20 mph    
Visibility 9 miles    
Events      
T = Trace of Precipitation, MM = Missing Value Source: NWS Daily Summary

Daily Weather History Graph

Daily Weather History Graph

Search for Another Location

Airport or City:

Trip Planner

Search our weather history database for the weather conditions in past years. The results will help you decide how hot, cold, wet, or windy it might be!

Date:

Astronomy

Jan. 20, 2013 Rise Set
Actual Time 7:20 AM EST 5:40 PM EST
Civil Twilight 6:53 AM EST 6:06 PM EST
Nautical Twilight 6:23 AM EST 6:37 PM EST
Astronomical Twilight 5:54 AM EST 7:06 PM EST
Moon 12:39 PM EST (1/20) 1:53 AM EST (1/20)
Length of Visible Light 11h 13m
Length of Day
10h 20m
Waxing Gibbous, 66% of the Moon is Illuminated
Jan 20
Waxing Gibbous
Jan 26
Full
Feb 3
Last Quarter
Feb 10
New
Feb 17
First Quarter

Hourly Weather History & Observations

Time (EST) Temp. Dew Point Humidity Pressure Visibility Wind Dir Wind Speed Gust Speed Precip Events Conditions
12:15 AM 44.6 °F 44.6 °F 100% 30.23 in 5.0 mi Calm Calm - N/A   Clear
12:35 AM 44.6 °F 44.6 °F 100% 30.22 in 5.0 mi Calm Calm - N/A   Clear
12:55 AM 44.6 °F 44.6 °F 100% 30.22 in 5.0 mi Calm Calm - N/A   Clear
1:15 AM 44.6 °F 44.6 °F 100% 30.21 in 5.0 mi Calm Calm - N/A   Clear
1:35 AM 44.6 °F 44.6 °F 100% 30.21 in 5.0 mi Calm Calm - N/A   Clear
1:55 AM 44.6 °F 44.6 °F 100% 30.21 in 5.0 mi Calm Calm - N/A   Clear
2:15 AM 44.6 °F 44.6 °F 100% 30.21 in 5.0 mi Calm Calm - N/A   Clear
2:35 AM 44.6 °F 44.6 °F 100% 30.20 in 5.0 mi Calm Calm - N/A   Clear
2:55 AM 44.6 °F 44.6 °F 100% 30.20 in 5.0 mi Calm Calm - N/A   Clear
3:15 AM 44.6 °F 44.6 °F 100% 30.19 in 7.0 mi Calm Calm - N/A   Clear
3:35 AM 44.6 °F 44.6 °F 100% 30.19 in 5.0 mi Calm Calm - N/A   Clear
3:55 AM 44.6 °F 44.6 °F 100% 30.19 in 7.0 mi Calm Calm - N/A   Clear
4:15 AM 42.8 °F 42.8 °F 100% 30.18 in 6.0 mi Calm Calm - N/A   Clear
4:35 AM 42.8 °F 42.8 °F 100% 30.18 in 7.0 mi Calm Calm - N/A   Clear
4:55 AM 44.6 °F 44.6 °F 100% 30.18 in 7.0 mi Calm Calm - N/A   Clear
5:15 AM 44.6 °F 44.6 °F 100% 30.18 in 4.0 mi Calm Calm - N/A   Clear
5:35 AM 42.8 °F 42.8 °F 100% 30.18 in 3.0 mi Calm Calm - N/A   Clear
5:55 AM 42.8 °F 42.8 °F 100% 30.18 in 9.0 mi Calm Calm - N/A   Clear
6:15 AM 42.8 °F 42.8 °F 100% 30.18 in 5.0 mi Calm Calm - N/A   Clear
6:35 AM 42.8 °F 42.8 °F 100% 30.18 in 9.0 mi Calm Calm - N/A   Clear
6:55 AM 42.8 °F 42.8 °F 100% 30.19 in 7.0 mi Calm Calm - N/A   Clear
7:15 AM 46.4 °F 46.4 °F 100% 30.19 in 10.0 mi Calm Calm - N/A   Clear
7:35 AM 46.4 °F 46.4 °F 100% 30.20 in 8.0 mi Calm Calm - N/A   Clear
7:55 AM 46.4 °F 44.6 °F 93% 30.20 in 9.0 mi Calm Calm - N/A   Clear
8:15 AM 48.2 °F 46.4 °F 93% 30.20 in 9.0 mi Calm Calm - N/A   Clear
8:35 AM 50.0 °F 48.2 °F 94% 30.20 in 8.0 mi Calm Calm - N/A   Clear
9:15 AM 53.6 °F 48.2 °F 82% 30.20 in 8.0 mi NW 6.9 mph - N/A   Clear
9:35 AM 55.4 °F 46.4 °F 72% 30.20 in 10.0 mi WNW 10.4 mph - N/A   Clear
9:55 AM 55.4 °F 46.4 °F 72% 30.20 in 10.0 mi WNW 12.7 mph - N/A   Clear
10:15 AM 53.6 °F 46.4 °F 77% 30.20 in 10.0 mi WNW 4.6 mph - N/A   Clear
10:35 AM 55.4 °F 46.4 °F 72% 30.20 in 10.0 mi West 9.2 mph - N/A   Clear
10:55 AM 57.2 °F 44.6 °F 63% 30.19 in 10.0 mi WNW 12.7 mph 16.1 mph N/A   Clear
11:15 AM 60.8 °F 44.6 °F 55% 30.18 in 10.0 mi West 10.4 mph - N/A   Clear
11:35 AM 60.8 °F 42.8 °F 52% 30.16 in 10.0 mi WNW 15.0 mph 19.6 mph N/A   Clear
11:55 AM 62.6 °F 44.6 °F 52% 30.15 in 10.0 mi West 15.0 mph - N/A   Clear
12:15 PM 62.6 °F 41.0 °F 45% 30.13 in 10.0 mi West 11.5 mph 17.3 mph N/A   Clear
12:35 PM 64.4 °F 41.0 °F 42% 30.11 in 10.0 mi WNW 13.8 mph 18.4 mph N/A   Clear
12:55 PM 64.4 °F 39.2 °F 40% 30.10 in 10.0 mi West 10.4 mph - N/A   Clear
1:15 PM 66.2 °F 39.2 °F 37% 30.09 in 10.0 mi WNW 10.4 mph 17.3 mph N/A   Clear
1:35 PM 66.2 °F 39.2 °F 37% 30.08 in 10.0 mi WNW 8.1 mph - N/A   Clear
1:55 PM 66.2 °F 37.4 °F 35% 30.07 in 10.0 mi West 9.2 mph - N/A   Clear
2:15 PM 66.2 °F 35.6 °F 32% 30.06 in 10.0 mi NW 10.4 mph - N/A   Clear
2:35 PM 68.0 °F 37.4 °F 33% 30.05 in 10.0 mi West 5.8 mph - N/A   Clear
2:55 PM 68.0 °F 32.0 °F 26% 30.05 in 10.0 mi WNW 9.2 mph - N/A   Clear
3:15 PM 69.8 °F 32.0 °F 25% 30.05 in 10.0 mi West 8.1 mph - N/A   Clear
3:35 PM 69.8 °F 32.0 °F 25% 30.05 in 10.0 mi West 9.2 mph - N/A   Clear
3:55 PM 69.8 °F 28.4 °F 21% 30.05 in 10.0 mi WNW 6.9 mph - N/A   Clear
4:15 PM 69.8 °F 26.6 °F 20% 30.05 in 10.0 mi WNW 6.9 mph - N/A   Clear
4:35 PM 68.0 °F 26.6 °F 21% 30.06 in 10.0 mi West 5.8 mph - N/A   Clear
4:55 PM 66.2 °F 26.6 °F 23% 30.06 in 10.0 mi Calm Calm - N/A   Clear
5:15 PM 66.2 °F 28.4 °F 24% 30.06 in 10.0 mi Calm Calm - N/A   Clear
5:35 PM 60.8 °F 35.6 °F 39% 30.06 in 10.0 mi Calm Calm - N/A   Clear
5:55 PM 55.4 °F 37.4 °F 51% 30.07 in 10.0 mi Calm Calm - N/A   Clear
6:15 PM 53.6 °F 39.2 °F 58% 30.07 in 10.0 mi Calm Calm - N/A   Clear
6:35 PM 51.8 °F 37.4 °F 58% 30.07 in 10.0 mi Calm Calm - N/A   Clear
6:55 PM 50.0 °F 39.2 °F 66% 30.08 in 10.0 mi Calm Calm - N/A   Clear
7:15 PM 48.2 °F 39.2 °F 71% 30.08 in 10.0 mi Calm Calm - N/A   Clear
7:35 PM 48.2 °F 37.4 °F 66% 30.08 in 10.0 mi Calm Calm - N/A   Clear
7:55 PM 46.4 °F 39.2 °F 76% 30.09 in 10.0 mi Calm Calm - N/A   Clear
8:15 PM 46.4 °F 39.2 °F 76% 30.09 in 10.0 mi Calm Calm - N/A   Clear
8:35 PM 44.6 °F 37.4 °F 76% 30.09 in 10.0 mi Calm Calm - N/A   Clear
8:55 PM 44.6 °F 39.2 °F 81% 30.10 in 10.0 mi Calm Calm - N/A   Clear
9:15 PM 44.6 °F 37.4 °F 76% 30.10 in 10.0 mi Calm Calm - N/A   Clear
9:35 PM 44.6 °F 37.4 °F 76% 30.10 in 10.0 mi Calm Calm - N/A   Clear
9:55 PM 44.6 °F 37.4 °F 76% 30.11 in 10.0 mi Calm Calm - N/A   Clear
10:15 PM 42.8 °F 37.4 °F 81% 30.11 in 10.0 mi Calm Calm - N/A   Clear
10:35 PM 42.8 °F 37.4 °F 81% 30.11 in 10.0 mi Calm Calm - N/A   Clear
10:55 PM 42.8 °F 37.4 °F 81% 30.12 in 10.0 mi Calm Calm - N/A   Clear
11:15 PM 41.0 °F 37.4 °F 87% 30.11 in 10.0 mi Calm Calm - N/A   Clear
11:35 PM 41.0 °F 37.4 °F 87% 30.11 in 10.0 mi Calm Calm - N/A   Clear
11:55 PM 39.2 °F 37.4 °F 93% 30.10 in 10.0 mi Calm Calm - N/A   Clear